Tracking 20041 objects as of 22-Nov-2019
Live streaming from Space Station
objects crossing your sky now

COSMOS 1633

Track COSMOS 1633 now!
10-day predictions
COSMOS 1633 is classified as:


NORAD ID: 15592
Int'l Code: 1985-020A
Perigee: 473.3 km
Apogee: 488.9 km
Inclination: 82.5 °
Period: 94.1 minutes
Semi major axis: 6852 km
RCS: 7.2924 m2 (large)
Launch date: March 5, 1985
Source: Commonwealth of Independent States (former USSR) (CIS)
Launch site: PLESETSK MISSILE AND SPACE COMPLEX (PKMTR)
aabbcc
Your satellite tracking list
Your tracking list is empty




NASA's NSSDC Master Catalog

Two Line Element Set (TLE):
1 15592U 85020A   19326.52592136  .00001311  00000-0  43007-4 0  9995
2 15592  82.5358 147.6432 0011352 269.9581  90.0359 15.30623356900092
Source of the keplerian elements: AFSPC